Regional Weather Roundup
Issued by NWS

Home | Current Version | Previous Version | Text Only | Print | Product List | Glossary Off
Versions: 1 2 3 4 5 6 7 8 9 10 11 12 13 14 15 16 17 18 19 20 21 22 23 24 25 26 27

000
ASUS45 KBOU 270807
RWRCO

WEATHER ROUNDUP FOR COLORADO
NATIONAL WEATHER SERVICE DENVER/BOULDER CO
200 AM MDT THU APR 27 2017

NOTE: "FAIR" INDICATES FEW OR NO CLOUDS BELOW 12000 FEET WITH NO
SIGNIFICANT WEATHER AND/OR OBSTRUCTIONS TO VISIBILITY.

COZ001>005-013-030-031-270900-
...NORTHWEST COLORADO...

CITY           SKY/WX    TMP DP  RH WIND       PRES   REMARKS
CRAIG          LGT RAIN  39  35  86 SW6       29.69F
HAYDEN         CLOUDY    36  30  80 W6        29.69F
MEEKER         LGT RAIN  36  34  92 CALM      29.69F
MOUNT WERNER   NOT AVBL
STEAMBOAT SPGS CLOUDY    35  34  94 CALM      29.69F
WALDEN           N/A     34  28  80 S10       29.68F WCI  26
$$

COZ006>008-011-270900-
...WEST CENTRAL VALLEYS...

CITY           SKY/WX    TMP DP  RH WIND       PRES   REMARKS
GRAND JUNCTION CLOUDY    45  41  86 E7        29.68F
MONTROSE       CLOUDY    43  35  73 CALM      29.74S
EAGLE          LGT RAIN  39  33  79 SW12      29.73S
RIFLE          LGT RAIN  42  38  85 CALM      29.71F
DELTA          CLOUDY    46  38  73 NE9       29.72F
NUCLA          NOT AVBL
$$

COZ017>023-064>068-270900-
...SOUTHWEST COLORADO...

CITY           SKY/WX    TMP DP  RH WIND       PRES   REMARKS
DURANGO        CLOUDY    42  34  73 SW5       29.76F
CORTEZ         RAIN      44  41  89 CALM      29.79R FOG
PAGOSA SPRINGS RAIN      40  30  67 W8        29.82R
TELLURIDE      NOT AVBL
WOLF CREEK PAS HVY SNOW  21  21 100 S25G33    29.85F VSB 1/4 WCI   4
$$

COZ009-010-012-014-032>034-037-058>063-270900-
...CENTRAL COLORADO...

CITY           SKY/WX    TMP DP  RH WIND       PRES   REMARKS
ASPEN          LGT SNOW  33  32  96 N5        29.71F FOG     WCI  29
BUENA VISTA    NOT AVBL
COPPER MTN     LGT SNOW  25  18  74 MISG      29.77F
BERTHOUD PASS  MOCLDY    16   5  62 W21G28    29.75F WCI  -2
COTTONWOOD PAS FLURRIES  34  23  64 W9        29.74F WCI  26
GUNNISON       LGT SNOW  33  32  96 CALM      29.76F FOG
KREMMLING      CLOUDY    37  36  93 CALM      29.71F
LEADVILLE      CLOUDY    29  19  66 VRB3      29.72F
MONARCH PASS   CLOUDY    23  21  93 SW26      29.89F WCI   6
SALIDA         MOCLDY    41  25  53 W7        29.78F
SUNLIGHT       LGT SNOW  25  23  93 SW13G20   29.78F WCI  13
WILKERSON PASS FAIR      25  18  74 SW16G24   29.76F WCI  12
$$

COZ069>075-270900-
...SAN LUIS VALLEY/SANGRE DE CRISTO MOUNTAINS...

CITY           SKY/WX    TMP DP  RH WIND       PRES   REMARKS
ALAMOSA        FAIR      40  27  59 S10       29.72F
LA VETA PASS   FAIR      28  23  80 SW24G39   29.85F WCI  14
SAGUACHE       MOCLDY    34  21  60 CALM      29.74F
$$

COZ035-036-038>040-270900-
...NORTHERN COLORADO FRONT RANGE...

CITY           SKY/WX    TMP DP  RH WIND       PRES   REMARKS
DENVER INTL AP MOCLDY    36  31  82 NE7       29.62F
DMNS CITY PARK   N/A     41  33  73 W2G8      29.63S
AURORA         MOCLDY    40  33  74 CALM      29.63F
FRONT RANGE AP FAIR      41  34  75 S6        29.64F
ERIE MUNI ARPT FAIR      40  35  84 CALM      29.64F
BOULDER MUN AP CLOUDY    43  36  75 CALM      29.65F
CENTENNIAL     FAIR      41  33  73 S10       29.63F
BROOMFIELD     FAIR      41  34  75 NW10      29.65F
FORT COLLINS   FAIR      41  35  79 CALM      29.65F
LONGMONT       FAIR      43  37  80 N3        29.66F HAZE
$$

COZ041-046-047-076>085-087-088-270900-
...PIKES PEAK/PALMER DIVIDE AND SOUTHERN FOOTHILLS...

CITY           SKY/WX    TMP DP  RH WIND       PRES   REMARKS
COLO. SPRINGS  FAIR      40  33  76 NE6       29.67F
A. F. ACADEMY  FAIR      32  30  90 N5        29.66F WCI  28
SCHRIEVER AFB  FAIR      38  32  78 E7        29.67F
ELLICOTT       NOT AVBL
FALCON         NOT AVBL
FORT CARSON    FAIR      43  31  63 CALM      29.65F
LIMON          FAIR      35  34  96 CALM      29.66F
MONUMENT HILL  FAIR      32  30  93 S10       29.67F WCI  24
TRINIDAD       FAIR      42  32  67 N3        29.68F
$$

COZ042>045-048>051-090-091-270900-
...NORTHEAST COLORADO...

CITY           SKY/WX    TMP DP  RH WIND       PRES   REMARKS
GREELEY ARPT   FAIR      43  37  79 E6        29.65
AKRON          CLOUDY    41  37  86 S8        29.65F
BURLINGTON     NOT AVBL
WRAY           NOT AVBL
STERLING       MOCLDY    39  39 100 CALM      29.64F
HOLYOKE        FAIR      41  34  75 SE8       29.67F
FORT MORGAN    NOT AVBL
$$

COZ086-089-092>099-270900-
...SOUTHEAST COLORADO...

CITY           SKY/WX    TMP DP  RH WIND       PRES   REMARKS
PUEBLO         FAIR      43  37  79 NE6       29.63F
LA JUNTA       FAIR      45  37  73 SE6       29.64F
LAMAR          FAIR      41  36  82 SE5       29.65F
SPRINGFIELD      N/A     43  37  79 S10       29.69F
$$




USA.gov is the U.S. government's official web portal to all federal, state and local government web resources and services.